Mount Carmel, IL

9:59 AM CST on December 14, 2019 (GMT -0600)
Mount Carmel Municipal

Weather History for KAJG - October, 2019

Change the Weather History Date:

Monday, October 7, 2019

  Actual Average (KLWV) Record (KLWV)
Temperature  
Mean Temperature 59 °F -  
Max Temperature 72 °F 70 °F 93 °F (2007)
Min Temperature 46 °F 46 °F 32 °F (2000)
Degree Days  
Heating Degree Days 6    
Growing Degree Days 9 (Base 50)    
Moisture  
Dew Point 46 °F    
Average Humidity 68    
Maximum Humidity 97    
Minimum Humidity 24    
Precipitation  
Precipitation 0.00 in - - ()
Sea Level Pressure  
Sea Level Pressure 30.19 in    
Wind  
Wind Speed 5 mph (NNE)    
Max Wind Speed 13 mph    
Max Gust Speed -    
Visibility 10 miles    
Events Rain    
Averages and records for this station are not official NWS values.
T = Trace of Precipitation, MM = Missing Value Source: NWS Daily Summary

Daily Weather History Graph

Daily Weather History Graph

Search for Another Location

Airport or City:

Astronomy

Oct. 07, 2019 Rise Set
Actual Time 6:52 AM CDT 6:24 PM CDT
Civil Twilight 6:25 AM CDT 6:51 PM CDT
Nautical Twilight 5:54 AM CDT 7:21 PM CDT
Astronomical Twilight 5:24 AM CDT 7:52 PM CDT
Moon 3:41 PM CDT (10/7) 12:49 AM CDT (10/7)
Length of Visible Light 12h 25m
Length of Day
11h 32m
Waxing Gibbous, 69% of the Moon is Illuminated
Oct 7
Waxing Gibbous
Oct 13
Full
Oct 21
Last Quarter
Oct 27
New
Nov 4
First Quarter

Hourly Weather History & Observations

Time (CDT) Temp. Dew Point Humidity Pressure Visibility Wind Dir Wind Speed Gust Speed Precip Events Conditions
12:15 AM 58.1 °F 57.2 °F 97% 30.16 in 7.0 mi Calm Calm - N/A   Overcast
12:35 AM 58.1 °F 56.8 °F 96% 30.16 in 10.0 mi North - - N/A   Overcast
12:55 AM 58.1 °F 56.8 °F 96% 30.15 in 10.0 mi North - - N/A   Overcast
1:15 AM 57.9 °F 56.7 °F 96% 30.17 in 7.0 mi North - - N/A   Overcast
1:35 AM 58.1 °F 57.0 °F 96% 30.17 in 7.0 mi North - - N/A   Overcast
1:55 AM 57.7 °F 56.8 °F 97% 30.18 in 7.0 mi North - - N/A Rain Light Rain
2:15 AM 56.8 °F 55.9 °F 97% 30.18 in 10.0 mi NW 3.5 mph - N/A   Mostly Cloudy
2:35 AM 56.7 °F 55.6 °F 96% 30.17 in 10.0 mi North - - N/A   Scattered Clouds
2:55 AM 56.3 °F 55.4 °F 97% 30.17 in 10.0 mi North - - N/A   Mostly Cloudy
3:15 AM 56.3 °F 55.4 °F 97% 30.17 in 7.0 mi North - - N/A   Mostly Cloudy
3:35 AM 55.4 °F 54.5 °F 97% 30.17 in 5.0 mi North - - N/A   Mostly Cloudy
3:55 AM 55.8 °F 54.9 °F 97% 30.18 in 10.0 mi North - - N/A   Clear
4:15 AM 55.9 °F 55.0 °F 97% 30.18 in 10.0 mi NW 3.5 mph - N/A   Clear
4:35 AM 56.3 °F 54.7 °F 94% 30.17 in 10.0 mi North - - N/A   Clear
4:55 AM 56.7 °F 53.4 °F 89% 30.18 in 10.0 mi North - - N/A   Clear
5:15 AM 56.3 °F 52.0 °F 85% 30.17 in 10.0 mi North 6.9 mph - N/A   Clear
5:35 AM 56.3 °F 50.4 °F 80% 30.17 in 10.0 mi North - - N/A   Clear
5:55 AM 55.6 °F 49.6 °F 80% 30.17 in 10.0 mi North - - N/A   Clear
6:15 AM 55.2 °F 49.5 °F 81% 30.18 in 10.0 mi North - - N/A   Clear
6:35 AM 55.0 °F 48.4 °F 78% 30.19 in 10.0 mi North - - N/A   Clear
6:55 AM 54.1 °F 48.7 °F 82% 30.19 in 10.0 mi North - - N/A   Clear
7:15 AM 54.0 °F 48.9 °F 83% 30.19 in 10.0 mi North - - N/A   Clear
7:35 AM 55.4 °F 48.0 °F 76% 30.20 in 10.0 mi North - - N/A   Clear
7:55 AM 55.4 °F 49.1 °F 79% 30.20 in 10.0 mi North - - N/A   Clear
8:15 AM 55.4 °F 48.7 °F 78% 30.21 in 10.0 mi North - - N/A   Clear
8:35 AM 55.6 °F 48.7 °F 78% 30.21 in 10.0 mi North - - N/A   Clear
8:55 AM 56.8 °F 48.7 °F 74% 30.22 in 10.0 mi North 5.8 mph - N/A   Clear
9:15 AM 59.0 °F 47.7 °F 66% 30.22 in 10.0 mi NNE 6.9 mph - N/A   Clear
9:55 AM 60.1 °F 47.5 °F 63% 30.23 in 10.0 mi NNE 8.1 mph - N/A   Clear
10:15 AM 62.4 °F 47.3 °F 58% 30.23 in 10.0 mi NNE 6.9 mph - N/A   Clear
10:35 AM 63.7 °F 47.5 °F 56% 30.24 in 10.0 mi North 6.9 mph - N/A   Clear
10:55 AM 64.6 °F 45.9 °F 51% 30.24 in 10.0 mi North 8.1 mph - N/A   Clear
11:15 AM 65.5 °F 44.4 °F 46% 30.24 in 10.0 mi North 10.4 mph - N/A   Clear
11:35 AM 66.7 °F 44.6 °F 45% 30.24 in 10.0 mi North - - N/A   Clear
11:55 AM 68.2 °F 41.9 °F 38% 30.23 in 10.0 mi North - - N/A   Clear
12:15 PM 69.4 °F 40.8 °F 35% 30.22 in 10.0 mi NE 12.7 mph - N/A   Clear
12:35 PM 69.1 °F 40.8 °F 36% 30.22 in 10.0 mi NNE 9.2 mph - N/A   Clear
12:55 PM 68.9 °F 40.6 °F 36% 30.22 in 10.0 mi North 9.2 mph - N/A   Clear
1:15 PM 70.3 °F 38.7 °F 31% 30.21 in 10.0 mi North 8.1 mph - N/A   Clear
1:35 PM 70.7 °F 38.7 °F 31% 30.20 in 10.0 mi North - - N/A   Clear
1:55 PM 70.5 °F 38.8 °F 32% 30.19 in 10.0 mi ENE 6.9 mph - N/A   Clear
2:15 PM 71.2 °F 38.7 °F 31% 30.19 in 10.0 mi NNW 10.4 mph - N/A   Clear
2:35 PM 72.0 °F 38.5 °F 30% 30.19 in 10.0 mi NE 8.1 mph - N/A   Clear
2:55 PM 72.0 °F 37.8 °F 29% 30.19 in 10.0 mi ENE 6.9 mph - N/A   Clear
3:15 PM 71.8 °F 36.9 °F 28% 30.18 in 10.0 mi North - - N/A   Clear
3:35 PM 71.8 °F 36.5 °F 28% 30.18 in 10.0 mi North 6.9 mph - N/A   Clear
3:55 PM 72.0 °F 33.4 °F 24% 30.18 in 10.0 mi NNE 9.2 mph - N/A   Clear
4:15 PM 71.8 °F 33.6 °F 25% 30.17 in 10.0 mi North - - N/A   Clear
4:35 PM 71.2 °F 34.0 °F 25% 30.17 in 10.0 mi North 8.1 mph - N/A   Clear
4:55 PM 71.1 °F 33.8 °F 25% 30.17 in 4.0 mi North - - N/A   Haze
5:35 PM 69.8 °F 36.9 °F 30% 30.17 in 10.0 mi NE 4.6 mph - N/A   Clear
5:50 PM 68.9 °F 37.0 °F 31% 30.17 in 10.0 mi North - - N/A   Clear
6:15 PM 66.7 °F 38.8 °F 36% 30.17 in 10.0 mi North - - N/A   Clear
6:35 PM 63.9 °F 41.7 °F 44% 30.18 in 10.0 mi North - - N/A   Clear
6:55 PM 59.0 °F 45.3 °F 60% 30.18 in 10.0 mi North - - N/A   Clear
7:15 PM 55.8 °F 45.7 °F 69% 30.18 in 10.0 mi Calm Calm - N/A   Clear
7:35 PM 55.4 °F 46.4 °F 72% 30.19 in 10.0 mi Calm Calm - N/A   Clear
7:55 PM 52.9 °F 46.9 °F 80% 30.19 in 10.0 mi North - - N/A   Clear
8:15 PM 52.3 °F 46.9 °F 82% 30.19 in 10.0 mi North - - N/A   Clear
8:35 PM 52.0 °F 47.7 °F 85% 30.20 in 10.0 mi North - - N/A   Clear
8:55 PM 50.4 °F 47.3 °F 89% 30.20 in 10.0 mi North - - N/A   Clear
9:15 PM 50.4 °F 47.5 °F 90% 30.21 in 10.0 mi North - - N/A   Clear
9:35 PM 49.8 °F 46.8 °F 89% 30.21 in 10.0 mi North - - N/A   Clear
9:55 PM 49.1 °F 46.6 °F 91% 30.21 in 10.0 mi North - - N/A   Clear
10:15 PM 48.4 °F 46.2 °F 92% 30.21 in 10.0 mi North - - N/A   Clear
10:35 PM 47.5 °F 45.7 °F 93% 30.22 in 10.0 mi North - - N/A   Clear
10:55 PM 46.6 °F 45.0 °F 94% 30.22 in 10.0 mi North - - N/A   Clear
11:15 PM 46.6 °F 44.4 °F 92% 30.22 in 10.0 mi North - - N/A   Clear
11:35 PM 46.4 °F 44.8 °F 94% 30.21 in 10.0 mi North - - N/A   Clear
11:55 PM 46.4 °F 45.1 °F 95% 30.21 in 10.0 mi North - - N/A   Clear